| time (UTC) | temp F | wind direction | speed MPH | gust MPH | rain 1hr in | rain 24hr in | rain mn in | humidity % | barometer mb |
| 20260901000521 | 91 | 205 | 1.0 | 7.0 | 0.00 | 0.00 | 0.00 | 65 | 1013.8 |
| 20260901000016 | 92 | 173 | 1.0 | 9.0 | 0.00 | 0.00 | 0.00 | 65 | 1013.7 |
| 20260831235512 | 92 | 93 | 2.0 | 9.0 | 0.00 | 0.00 | 0.00 | 64 | 1013.6 |
| 20260831235015 | 92 | 166 | 1.0 | 6.0 | 0.00 | 0.00 | 0.00 | 64 | 1013.7 |
| 20260831234528 | 93 | 178 | 3.0 | 7.0 | 0.00 | 0.00 | 0.00 | 63 | 1013.7 |
| 20260831234014 | 93 | 190 | 2.0 | 9.0 | 0.00 | 0.00 | 0.00 | 62 | 1013.8 |
| 20260831233540 | 94 | 178 | 1.0 | 9.0 | 0.00 | 0.00 | 0.00 | 61 | 1013.7 |
| 20260831233537 | 94 | 317 | 2.0 | 9.0 | 0.00 | 0.00 | 0.00 | 60 | 1013.7 |
| 20260831233534 | 95 | 9 | 2.0 | 9.0 | 0.00 | 0.00 | 0.00 | 58 | 1013.6 |
| 20260831233531 | 95 | 171 | 4.0 | 8.0 | 0.00 | 0.00 | 0.00 | 56 | 1013.6 |
| 20260831233529 | 96 | 157 | 3.0 | 8.0 | 0.00 | 0.00 | 0.00 | 54 | 1013.5 |
| 20260831233522 | 96 | 161 | 3.0 | 9.0 | 0.00 | 0.00 | 0.00 | 54 | 1013.5 |
| 20260831233519 | 95 | 170 | 2.0 | 5.0 | 0.00 | 0.00 | 0.00 | 57 | 1013.7 |
| 20260831233506 | 95 | 113 | 1.0 | 7.0 | 0.00 | 0.00 | 0.00 | 57 | 1013.6 |
| 20260831233501 | 95 | 105 | 3.0 | 9.0 | 0.00 | 0.00 | 0.00 | 56 | 1013.6 |
| 20260831233456 | 95 | 236 | 3.0 | 10.0 | 0.00 | 0.00 | 0.00 | 59 | 1013.8 |
| 20260831233451 | 95 | 92 | 3.0 | 10.0 | 0.00 | 0.00 | 0.00 | 61 | 1013.9 |
| 20260831233446 | 96 | 205 | 3.0 | 7.0 | 0.00 | 0.00 | 0.00 | 63 | 1014.0 |
| 20260831233444 | 97 | 205 | 2.0 | 8.0 | 0.00 | 0.00 | 0.00 | 62 | 1014.0 |
| 20260831233438 | 98 | 128 | 3.0 | 11.0 | 0.00 | 0.00 | 0.00 | 60 | 1013.9 |
| 20260831233433 | 97 | 103 | 3.0 | 9.0 | 0.00 | 0.00 | 0.00 | 61 | 1014.0 |
| 20260831233425 | 99 | 287 | 4.0 | 14.0 | 0.00 | 0.00 | 0.00 | 61 | 1014.4 |
| 20260831233420 | 99 | 161 | 2.0 | 7.0 | 0.00 | 0.00 | 0.00 | 56 | 1014.7 |
| 20260831233415 | 100 | 143 | 1.0 | 8.0 | 0.00 | 0.00 | 0.00 | 56 | 1014.8 |
| 20260831233402 | 98 | 178 | 2.0 | 11.0 | 0.00 | 0.00 | 0.00 | 54 | 1015.0 |
| 20260831233400 | 99 | 193 | 5.0 | 10.0 | 0.00 | 0.00 | 0.00 | 59 | 1015.1 |
| 20260831233352 | 99 | 216 | 1.0 | 9.0 | 0.00 | 0.00 | 0.00 | 58 | 1015.3 |
| 20260831233349 | 97 | 9 | 3.0 | 7.0 | 0.00 | 0.00 | 0.00 | 60 | 1015.5 |
| 20260831233341 | 98 | 67 | 2.0 | 8.0 | 0.00 | 0.00 | 0.00 | 58 | 1015.7 |
| 20260831233338 | 99 | 107 | 2.0 | 7.0 | 0.00 | 0.00 | 0.00 | 59 | 1015.7 |
| 20260831233333 | 99 | 161 | 4.0 | 10.0 | 0.00 | 0.00 | 0.00 | 63 | 1015.8 |
| 20260831233327 | 99 | 86 | 3.0 | 10.0 | 0.00 | 0.00 | 0.00 | 59 | 1016.0 |
| 20260831233323 | 99 | 67 | 3.0 | 8.0 | 0.00 | 0.00 | 0.00 | 60 | 1016.3 |
| 20260831233320 | 95 | 221 | 2.0 | 7.0 | 0.00 | 0.00 | 0.00 | 64 | 1016.6 |
| 20260831233314 | 95 | 238 | 1.0 | 9.0 | 0.00 | 0.00 | 0.00 | 64 | 1016.7 |
| 20260831233302 | 95 | 178 | 3.0 | 9.0 | 0.00 | 0.00 | 0.00 | 66 | 1016.8 |
| 20260831233259 | 95 | 206 | 3.0 | 9.0 | 0.00 | 0.00 | 0.00 | 65 | 1016.8 |
| 20260831233254 | 93 | 63 | 3.0 | 7.0 | 0.00 | 0.00 | 0.00 | 66 | 1016.8 |
| 20260831233250 | 93 | 334 | 2.0 | 8.0 | 0.00 | 0.00 | 0.00 | 71 | 1016.7 |
| 20260831233246 | 89 | 279 | 1.0 | 3.0 | 0.00 | 0.00 | 0.00 | 74 | 1016.9 |
| 20260831233242 | 89 | 250 | 1.0 | 3.0 | 0.00 | 0.00 | 0.00 | 73 | 1016.9 |
| 20260831233237 | 88 | 51 | 1.0 | 7.0 | 0.00 | 0.00 | 0.00 | 74 | 1017.1 |
| 20260831233232 | 88 | 245 | 1.0 | 5.0 | 0.00 | 0.00 | 0.00 | 78 | 1017.1 |
| 20260831233226 | 88 | 298 | 1.0 | 4.0 | 0.00 | 0.00 | 0.00 | 77 | 1017.1 |
| 20260831233223 | 87 | 309 | 0.0 | 4.0 | 0.00 | 0.00 | 0.00 | 78 | 1017.0 |
| 20260831233218 | 86 | 232 | 1.0 | 4.0 | 0.00 | 0.00 | 0.00 | 83 | 1016.9 |
| 20260831233215 | 84 | 295 | 1.0 | 4.0 | 0.00 | 0.00 | 0.00 | 89 | 1016.7 |
| 20260831233203 | 82 | 279 | 1.0 | 4.0 | 0.00 | 0.00 | 0.00 | 91 | 1016.7 |
| 20260831233158 | 82 | 22 | 1.0 | 4.0 | 0.00 | 0.00 | 0.00 | 92 | 1016.7 |
| 20260831233150 | 79 | 178 | 1.0 | 2.0 | 0.00 | 0.00 | 0.00 | 96 | 1016.7 |
| 20260831233144 | 78 | 338 | 1.0 | 3.0 | 0.00 | 0.00 | 0.00 | 96 | 1016.2 |
| 20260831233141 | 78 | 34 | 0.0 | 3.0 | 0.00 | 0.00 | 0.00 | 96 | 1016.3 |
| 20260831233137 | 77 | 9 | 0.0 | 1.0 | 0.00 | 0.00 | 0.00 | 96 | 1016.4 |
| 20260831233132 | 76 | 119 | 1.0 | 2.0 | 0.00 | 0.00 | 0.00 | 95 | 1016.2 |
| 20260831233127 | 75 | 93 | 0.0 | 2.0 | 0.00 | 0.00 | 0.00 | 95 | 1016.1 |
| 20260831233122 | 75 | 51 | 0.0 | 2.0 | 0.00 | 0.00 | 0.00 | 94 | 1015.4 |
| 20260831233113 | 75 | 67 | 0.0 | 2.0 | 0.00 | 0.00 | 0.00 | 94 | 1015.3 |
| 20260831233104 | 75 | 67 | 0.0 | 1.0 | 0.00 | 0.00 | 0.00 | 94 | 1015.3 |
| 20260831233102 | 75 | 51 | 0.0 | 1.0 | 0.00 | 0.00 | 0.00 | 94 | 1015.3 |
| 20260831233055 | 76 | 67 | 0.0 | 1.0 | 0.00 | 0.00 | 0.00 | 93 | 1015.2 |
| 20260831233044 | 76 | 41 | 0.0 | 2.0 | 0.00 | 0.00 | 0.00 | 93 | 1015.2 |
| 20260831233037 | 77 | 80 | 0.0 | 2.0 | 0.00 | 0.00 | 0.00 | 93 | 1015.3 |
| 20260831233034 | 77 | 137 | 0.0 | 2.0 | 0.00 | 0.00 | 0.00 | 92 | 1015.3 |
| 20260831233030 | 77 | 34 | 0.0 | 1.0 | 0.00 | 0.00 | 0.00 | 92 | 1015.2 |
| 20260831233023 | 77 | 51 | 0.0 | 1.0 | 0.00 | 0.00 | 0.00 | 92 | 1015.2 |
| 20260831233005 | 77 | 67 | 0.0 | 1.0 | 0.00 | 0.00 | 0.00 | 92 | 1015.2 |
| 20260831233000 | 77 | 93 | 0.0 | 2.0 | 0.00 | 0.00 | 0.00 | 92 | 1015.1 |
| 20260831232959 | 77 | 67 | 0.0 | 1.0 | 0.00 | 0.00 | 0.00 | 92 | 1015.2 |
| 20260831232954 | 78 | 93 | 1.0 | 2.0 | 0.00 | 0.00 | 0.00 | 92 | 1015.1 |
| 20260831232944 | 78 | 93 | 0.0 | 4.0 | 0.00 | 0.00 | 0.00 | 91 | 1015.3 |
| 20260831232941 | 78 | 360 | 1.0 | 4.0 | 0.00 | 0.00 | 0.00 | 91 | 1015.2 |
| 20260831232937 | 79 | 214 | 0.0 | 4.0 | 0.00 | 0.00 | 0.00 | 91 | 1015.1 |
| 20260831232930 | 79 | 76 | 0.0 | 2.0 | 0.00 | 0.00 | 0.00 | 91 | 1015.3 |
| 20260831232925 | 79 | 137 | 0.0 | 2.0 | 0.00 | 0.00 | 0.00 | 91 | 1015.2 |
| 20260831232921 | 79 | 137 | 0.0 | 2.0 | 0.00 | 0.00 | 0.00 | 91 | 1015.3 |
| 20260831232918 | 79 | 126 | 0.0 | 2.0 | 0.00 | 0.00 | 0.00 | 90 | 1015.5 |
| 20260831232901 | 79 | 148 | 1.0 | 4.0 | 0.00 | 0.00 | 0.00 | 90 | 1015.5 |
| 20260831232857 | 79 | 200 | 1.0 | 5.0 | 0.00 | 0.00 | 0.00 | 90 | 1015.7 |
| 20260831232854 | 79 | 171 | 2.0 | 5.0 | 0.00 | 0.00 | 0.00 | 90 | 1015.7 |
| 20260831232850 | 80 | 153 | 2.0 | 7.0 | 0.00 | 0.00 | 0.00 | 90 | 1015.7 |
| 20260831232846 | 80 | 163 | 1.0 | 5.0 | 0.00 | 0.00 | 0.00 | 89 | 1015.7 |
| 20260831232843 | 80 | 161 | 3.0 | 6.0 | 0.00 | 0.00 | 0.00 | 89 | 1015.7 |
| 20260831232838 | 80 | 221 | 1.0 | 4.0 | 0.00 | 0.00 | 0.00 | 89 | 1015.7 |
| 20260831232835 | 80 | 205 | 1.0 | 4.0 | 0.00 | 0.00 | 0.00 | 89 | 1015.7 |
| 20260831232830 | 80 | 178 | 1.0 | 5.0 | 0.00 | 0.00 | 0.00 | 89 | 1015.6 |
| 20260831232827 | 80 | 153 | 1.0 | 4.0 | 0.00 | 0.00 | 0.00 | 89 | 1015.6 |
| 20260831232824 | 80 | 148 | 1.0 | 4.0 | 0.00 | 0.00 | 0.00 | 89 | 1015.6 |
| 20260831232821 | 81 | 165 | 0.0 | 4.0 | 0.00 | 0.00 | 0.00 | 88 | 1015.4 |
| 20260831232810 | 81 | 178 | 1.0 | 7.0 | 0.00 | 0.00 | 0.00 | 87 | 1015.2 |
| 20260831232803 | 82 | 178 | 2.0 | 6.0 | 0.00 | 0.00 | 0.00 | 86 | 1015.2 |
| 20260831232757 | 82 | 170 | 2.0 | 7.0 | 0.00 | 0.00 | 0.00 | 85 | 1015.0 |
| 20260831232751 | 82 | 162 | 2.0 | 7.0 | 0.00 | 0.00 | 0.00 | 84 | 1015.0 |
| 20260831232747 | 83 | 165 | 2.0 | 8.0 | 0.00 | 0.00 | 0.00 | 83 | 1014.7 |
| 20260831232740 | 83 | 137 | 4.0 | 11.0 | 0.00 | 0.00 | 0.00 | 82 | 1014.8 |
| 20260831232732 | 84 | 187 | 4.0 | 14.0 | 0.00 | 0.00 | 0.00 | 81 | 1014.4 |
| 20260831232726 | 85 | 161 | 3.0 | 8.0 | 0.00 | 0.00 | 0.00 | 79 | 1014.1 |
| 20260831232721 | 85 | 164 | 4.0 | 9.0 | 0.00 | 0.00 | 0.00 | 78 | 1013.9 |
| 20260831232703 | 87 | 175 | 3.0 | 11.0 | 0.00 | 0.00 | 0.00 | 75 | 1013.6 |
| 20260831232700 | 87 | 169 | 4.0 | 12.0 | 0.00 | 0.00 | 0.00 | 74 | 1013.6 |
| 20260831232655 | 88 | 166 | 6.0 | 12.0 | 0.00 | 0.00 | 0.00 | 72 | 1013.5 |
| 20260831232651 | 88 | 165 | 3.0 | 11.0 | 0.00 | 0.00 | 0.00 | 71 | 1013.5 |
| 20260831232646 | 89 | 150 | 3.0 | 11.0 | 0.00 | 0.00 | 0.00 | 69 | 1013.2 |
| 20260831232642 | 90 | 191 | 5.0 | 12.0 | 0.00 | 0.00 | 0.00 | 67 | 1013.3 |
| 20260831232637 | 90 | 171 | 5.0 | 13.0 | 0.00 | 0.00 | 0.00 | 66 | 1013.2 |
| 20260831232635 | 92 | 161 | 4.0 | 12.0 | 0.00 | 0.00 | 0.00 | 64 | 1013.1 |
| 20260831232630 | 92 | 190 | 6.0 | 12.0 | 0.00 | 0.00 | 0.00 | 63 | 1013.0 |
| 20260831232624 | 94 | 202 | 7.0 | 12.0 | 0.00 | 0.00 | 0.00 | 60 | 1013.1 |
| 20260831232621 | 96 | 137 | 5.0 | 14.0 | 0.00 | 0.00 | 0.00 | 57 | 1013.1 |
| 20260831232618 | 98 | 148 | 5.0 | 10.0 | 0.00 | 0.00 | 0.00 | 55 | 1013.0 |
| 20260831232601 | 97 | 202 | 5.0 | 13.0 | 0.00 | 0.00 | 0.00 | 54 | 1012.9 |
| 20260831232557 | 98 | 168 | 4.0 | 11.0 | 0.00 | 0.00 | 0.00 | 52 | 1012.8 |
| 20260831232552 | 100 | 187 | 4.0 | 10.0 | 0.00 | 0.00 | 0.00 | 51 | 1012.9 |
| 20260831232544 | 101 | 194 | 6.0 | 12.0 | 0.00 | 0.00 | 0.00 | 49 | 1013.1 |
| 20260831232540 | 102 | 183 | 5.0 | 11.0 | 0.00 | 0.00 | 0.00 | 49 | 1013.0 |
| 20260831232536 | 102 | 291 | 6.0 | 14.0 | 0.00 | 0.00 | 0.00 | 47 | 1012.9 |
| 20260831232533 | 102 | 155 | 7.0 | 14.0 | 0.00 | 0.00 | 0.00 | 47 | 1012.9 |
| 20260831232528 | 103 | 225 | 7.0 | 15.0 | 0.00 | 0.00 | 0.00 | 45 | 1013.1 |
| 20260831232523 | 103 | 80 | 2.0 | 13.0 | 0.00 | 0.00 | 0.00 | 48 | 1013.3 |
| 20260831232520 | 101 | 197 | 4.0 | 10.0 | 0.00 | 0.00 | 0.00 | 49 | 1013.6 |
| 20260831232516 | 103 | 93 | 3.0 | 11.0 | 0.00 | 0.00 | 0.00 | 47 | 1013.6 |
| 20260831232505 | 103 | 178 | 5.0 | 13.0 | 0.00 | 0.00 | 0.00 | 46 | 1014.0 |
| 20260831232500 | 103 | 194 | 5.0 | 11.0 | 0.00 | 0.00 | 0.00 | 47 | 1014.1 |
| 20260831232455 | 102 | 189 | 4.0 | 11.0 | 0.00 | 0.00 | 0.00 | 48 | 1014.4 |
| 20260831232451 | 101 | 121 | 4.0 | 11.0 | 0.00 | 0.00 | 0.00 | 53 | 1014.5 |
| 20260831232446 | 100 | 168 | 2.0 | 10.0 | 0.00 | 0.00 | 0.00 | 54 | 1014.9 |
| 20260831232441 | 100 | 224 | 4.0 | 10.0 | 0.00 | 0.00 | 0.00 | 52 | 1014.9 |
| 20260831232436 | 101 | 169 | 4.0 | 9.0 | 0.00 | 0.00 | 0.00 | 55 | 1015.3 |
| 20260831232430 | 100 | 211 | 1.0 | 14.0 | 0.00 | 0.00 | 0.00 | 57 | 1015.5 |
| 20260831232424 | 99 | 51 | 4.0 | 12.0 | 0.00 | 0.00 | 0.00 | 54 | 1015.6 |
| 20260831232420 | 96 | 159 | 2.0 | 6.0 | 0.00 | 0.00 | 0.00 | 62 | 1016.0 |
| 20260831232411 | 97 | 234 | 2.0 | 11.0 | 0.00 | 0.00 | 0.00 | 62 | 1016.5 |
| 20260831232404 | 97 | 200 | 5.0 | 12.0 | 0.00 | 0.00 | 0.00 | 63 | 1016.6 |
| 20260831232359 | 95 | 38 | 2.0 | 8.0 | 0.00 | 0.00 | 0.00 | 61 | 1016.9 |
| 20260831232353 | 95 | 51 | 2.0 | 7.0 | 0.00 | 0.00 | 0.00 | 68 | 1017.0 |
| 20260831232349 | 94 | 78 | 3.0 | 7.0 | 0.00 | 0.00 | 0.00 | 66 | 1017.1 |
| 20260831232346 | 93 | 178 | 2.0 | 6.0 | 0.00 | 0.00 | 0.00 | 72 | 1017.1 |
| 20260831232342 | 93 | 213 | 2.0 | 11.0 | 0.00 | 0.00 | 0.00 | 71 | 1017.2 |
| 20260831232339 | 92 | 207 | 2.0 | 6.0 | 0.00 | 0.00 | 0.00 | 72 | 1017.1 |
| 20260831232334 | 92 | 265 | 2.0 | 10.0 | 0.00 | 0.00 | 0.00 | 73 | 1017.4 |
| 20260831232324 | 89 | 153 | 2.0 | 5.0 | 0.00 | 0.00 | 0.00 | 76 | 1017.5 |
| 20260831232320 | 89 | 247 | 1.0 | 7.0 | 0.00 | 0.00 | 0.00 | 76 | 1017.6 |
| 20260831232317 | 89 | 193 | 1.0 | 7.0 | 0.00 | 0.00 | 0.00 | 78 | 1017.5 |
| 20260831232309 | 87 | 309 | 1.0 | 5.0 | 0.00 | 0.00 | 0.00 | 82 | 1017.4 |
| 20260831232306 | 87 | 259 | 2.0 | 7.0 | 0.00 | 0.00 | 0.00 | 82 | 1017.3 |
| 20260831232259 | 87 | 205 | 2.0 | 7.0 | 0.00 | 0.00 | 0.00 | 84 | 1017.3 |
| 20260831232257 | 86 | 330 | 1.0 | 6.0 | 0.00 | 0.00 | 0.00 | 85 | 1017.3 |
| 20260831232251 | 85 | 197 | 1.0 | 6.0 | 0.00 | 0.00 | 0.00 | 89 | 1017.4 |
| 20260831232247 | 84 | 196 | 3.0 | 9.0 | 0.00 | 0.00 | 0.00 | 91 | 1017.4 |
| 20260831232242 | 82 | 51 | 2.0 | 7.0 | 0.00 | 0.00 | 0.00 | 94 | 1017.4 |
| 20260831232235 | 79 | 148 | 2.0 | 6.0 | 0.00 | 0.00 | 0.00 | 96 | 1017.3 |
| 20260831232229 | 78 | 157 | 1.0 | 3.0 | 0.00 | 0.00 | 0.00 | 96 | 1017.3 |
| 20260831232223 | 77 | 67 | 0.0 | 2.0 | 0.00 | 0.00 | 0.00 | 96 | 1017.1 |
| 20260831232217 | 76 | 34 | 0.0 | 2.0 | 0.00 | 0.00 | 0.00 | 96 | 1017.0 |
| 20260831232214 | 76 | 309 | 0.0 | 2.0 | 0.00 | 0.00 | 0.00 | 95 | 1017.0 |
| 20260831232205 | 76 | 325 | 1.0 | 2.0 | 0.00 | 0.00 | 0.00 | 95 | 1016.9 |
| 20260831232200 | 76 | 67 | 0.0 | 2.0 | 0.00 | 0.00 | 0.00 | 95 | 1016.8 |
| 20260831232157 | 75 | 9 | 0.0 | 1.0 | 0.00 | 0.00 | 0.00 | 95 | 1016.7 |
| 20260831232153 | 75 | 9 | 0.0 | 1.0 | 0.00 | 0.00 | 0.00 | 95 | 1016.7 |
| 20260831232147 | 75 | 93 | 0.0 | 1.0 | 0.00 | 0.00 | 0.00 | 94 | 1016.5 |
| 20260831232140 | 75 | 51 | 0.0 | 1.0 | 0.00 | 0.00 | 0.00 | 94 | 1016.5 |
| 20260831232135 | 75 | 51 | 0.0 | 2.0 | 0.00 | 0.00 | 0.00 | 94 | 1016.3 |
| 20260831232130 | 75 | 67 | 0.0 | 1.0 | 0.00 | 0.00 | 0.00 | 94 | 1016.1 |
| 20260831232124 | 75 | 61 | 0.0 | 2.0 | 0.00 | 0.00 | 0.00 | 94 | 1016.2 |
| 20260831232122 | 75 | 51 | 0.0 | 2.0 | 0.00 | 0.00 | 0.00 | 94 | 1016.2 |
| 20260831232118 | 75 | 61 | 0.0 | 2.0 | 0.00 | 0.00 | 0.00 | 94 | 1016.1 |
| 20260831232102 | 76 | 67 | 0.0 | 1.0 | 0.00 | 0.00 | 0.00 | 93 | 1015.8 |
| 20260831232058 | 76 | 93 | 0.0 | 1.0 | 0.00 | 0.00 | 0.00 | 93 | 1015.8 |
| 20260831232054 | 76 | 51 | 0.0 | 1.0 | 0.00 | 0.00 | 0.00 | 93 | 1015.8 |
| 20260831232050 | 76 | 67 | 0.0 | 2.0 | 0.00 | 0.00 | 0.00 | 93 | 1015.6 |
| 20260831232046 | 76 | 76 | 0.0 | 1.0 | 0.00 | 0.00 | 0.00 | 92 | 1015.7 |
| 20260831232043 | 77 | 93 | 0.0 | 2.0 | 0.00 | 0.00 | 0.00 | 92 | 1015.7 |
| 20260831232040 | 77 | 93 | 0.0 | 2.0 | 0.00 | 0.00 | 0.00 | 92 | 1015.7 |
| 20260831232033 | 77 | 76 | 0.0 | 2.0 | 0.00 | 0.00 | 0.00 | 92 | 1015.8 |
| 20260831232028 | 78 | 119 | 0.0 | 3.0 | 0.00 | 0.00 | 0.00 | 92 | 1015.8 |
| 20260831232024 | 78 | 157 | 0.0 | 3.0 | 0.00 | 0.00 | 0.00 | 91 | 1015.9 |
| 20260831232021 | 78 | 153 | 0.0 | 3.0 | 0.00 | 0.00 | 0.00 | 91 | 1015.9 |
| 20260831232013 | 78 | 76 | 0.0 | 3.0 | 0.00 | 0.00 | 0.00 | 91 | 1016.0 |
| 20260831231957 | 79 | 146 | 1.0 | 4.0 | 0.00 | 0.00 | 0.00 | 91 | 1016.1 |
| 20260831231955 | 79 | 178 | 1.0 | 5.0 | 0.00 | 0.00 | 0.00 | 91 | 1016.1 |
| 20260831231947 | 79 | 123 | 1.0 | 4.0 | 0.00 | 0.00 | 0.00 | 90 | 1016.1 |
| 20260831231943 | 79 | 178 | 2.0 | 5.0 | 0.00 | 0.00 | 0.00 | 90 | 1016.1 |
| 20260831231936 | 79 | 146 | 0.0 | 4.0 | 0.00 | 0.00 | 0.00 | 90 | 1016.1 |
| 20260831231928 | 79 | 137 | 1.0 | 4.0 | 0.00 | 0.00 | 0.00 | 90 | 1016.1 |
| 20260831231926 | 80 | 193 | 2.0 | 7.0 | 0.00 | 0.00 | 0.00 | 90 | 1016.0 |
| 20260831231921 | 80 | 193 | 3.0 | 7.0 | 0.00 | 0.00 | 0.00 | 90 | 1016.0 |
| 20260831231918 | 80 | 171 | 1.0 | 6.0 | 0.00 | 0.00 | 0.00 | 89 | 1016.2 |
| 20260831231909 | 80 | 136 | 2.0 | 6.0 | 0.00 | 0.00 | 0.00 | 89 | 1016.1 |
| 20260831231903 | 80 | 193 | 2.0 | 6.0 | 0.00 | 0.00 | 0.00 | 89 | 1016.2 |
| 20260831231900 | 80 | 137 | 2.0 | 7.0 | 0.00 | 0.00 | 0.00 | 89 | 1016.2 |
| 20260831231855 | 81 | 206 | 1.0 | 6.0 | 0.00 | 0.00 | 0.00 | 89 | 1016.3 |
| 20260831231851 | 81 | 254 | 2.0 | 6.0 | 0.00 | 0.00 | 0.00 | 88 | 1016.3 |
| 20260831231848 | 81 | 157 | 5.0 | 9.0 | 0.00 | 0.00 | 0.00 | 88 | 1016.2 |
| 20260831231842 | 82 | 198 | 2.0 | 7.0 | 0.00 | 0.00 | 0.00 | 87 | 1016.3 |
| 20260831231837 | 82 | 162 | 4.0 | 8.0 | 0.00 | 0.00 | 0.00 | 87 | 1016.3 |
| 20260831231833 | 82 | 198 | 4.0 | 8.0 | 0.00 | 0.00 | 0.00 | 86 | 1016.1 |
| 20260831231828 | 82 | 155 | 3.0 | 7.0 | 0.00 | 0.00 | 0.00 | 85 | 1016.1 |
| 20260831231824 | 83 | 161 | 2.0 | 8.0 | 0.00 | 0.00 | 0.00 | 85 | 1016.1 |
| 20260831231822 | 83 | 171 | 4.0 | 10.0 | 0.00 | 0.00 | 0.00 | 83 | 1016.0 |
| 20260831231817 | 84 | 196 | 3.0 | 10.0 | 0.00 | 0.00 | 0.00 | 82 | 1015.8 |
| 20260831231801 | 85 | 178 | 3.0 | 7.0 | 0.00 | 0.00 | 0.00 | 81 | 1015.5 |
| 20260831231757 | 85 | 189 | 3.0 | 9.0 | 0.00 | 0.00 | 0.00 | 80 | 1015.3 |
| 20260831231755 | 85 | 152 | 5.0 | 11.0 | 0.00 | 0.00 | 0.00 | 80 | 1015.2 |
| 20260831231747 | 86 | 162 | 4.0 | 11.0 | 0.00 | 0.00 | 0.00 | 79 | 1014.9 |
| 20260831231744 | 86 | 202 | 5.0 | 11.0 | 0.00 | 0.00 | 0.00 | 78 | 1014.6 |
| 20260831231739 | 87 | 144 | 4.0 | 11.0 | 0.00 | 0.00 | 0.00 | 77 | 1014.6 |
| 20260831231736 | 87 | 157 | 5.0 | 15.0 | 0.00 | 0.00 | 0.00 | 77 | 1014.5 |
| 20260831231733 | 88 | 123 | 4.0 | 9.0 | 0.00 | 0.00 | 0.00 | 75 | 1014.3 |
| 20260831231728 | 89 | 157 | 4.0 | 11.0 | 0.00 | 0.00 | 0.00 | 74 | 1014.2 |
| 20260831231724 | 90 | 200 | 5.0 | 13.0 | 0.00 | 0.01 | 0.00 | 72 | 1014.3 |
| 20260831231721 | 91 | 171 | 6.0 | 14.0 | 0.00 | 0.01 | 0.00 | 70 | 1014.0 |
| 20260831231716 | 94 | 175 | 4.0 | 12.0 | 0.00 | 0.01 | 0.00 | 65 | 1014.1 |
| 20260831231700 | 96 | 227 | 4.0 | 10.0 | 0.00 | 0.01 | 0.00 | 62 | 1014.2 |
| 20260831231657 | 96 | 164 | 5.0 | 12.0 | 0.00 | 0.01 | 0.00 | 61 | 1014.3 |
| 20260831231650 | 99 | 173 | 5.0 | 15.0 | 0.00 | 0.03 | 0.00 | 56 | 1014.2 |
| 20260831231647 | 100 | 198 | 4.0 | 14.0 | 0.00 | 0.03 | 0.00 | 52 | 1014.2 |
| 20260831231645 | 100 | 155 | 3.0 | 10.0 | 0.00 | 0.03 | 0.00 | 50 | 1014.1 |
| 20260831231638 | 101 | 173 | 2.0 | 8.0 | 0.00 | 0.03 | 0.00 | 48 | 1013.9 |
| 20260831231634 | 102 | 202 | 5.0 | 10.0 | 0.00 | 0.03 | 0.00 | 48 | 1013.9 |
| 20260831231627 | 103 | 185 | 5.0 | 12.0 | 0.00 | 0.03 | 0.00 | 46 | 1014.1 |
| 20260831231619 | 103 | 178 | 3.0 | 11.0 | 0.00 | 0.03 | 0.00 | 48 | 1014.3 |
| 20260831231610 | 102 | 129 | 2.0 | 12.0 | 0.00 | 0.03 | 0.00 | 49 | 1014.3 |
| 20260831231606 | 101 | 190 | 4.0 | 8.0 | 0.00 | 0.03 | 0.00 | 48 | 1014.8 |
| 20260831231604 | 103 | 153 | 2.0 | 8.0 | 0.00 | 0.03 | 0.00 | 52 | 1015.4 |
| 20260831231555 | 100 | 164 | 5.0 | 8.0 | 0.00 | 0.03 | 0.00 | 55 | 1016.1 |
| 20260831231539 | 100 | 171 | 5.0 | 11.0 | 0.00 | 0.03 | 0.00 | 56 | 1016.4 |
| 20260831231537 | 100 | 220 | 4.0 | 10.0 | 0.00 | 0.03 | 0.00 | 53 | 1016.5 |
| 20260831231534 | 96 | 298 | 2.0 | 7.0 | 0.00 | 0.03 | 0.00 | 65 | 1016.8 |
| 20260831231513 | 95 | 325 | 2.0 | 9.0 | 0.00 | 0.03 | 0.00 | 63 | 1016.9 |
| 20260831231503 | 96 | 257 | 4.0 | 9.0 | 0.00 | 0.03 | 0.00 | 63 | 1017.0 |
| 20260831231459 | 98 | 265 | 3.0 | 9.0 | 0.00 | 0.03 | 0.00 | 62 | 1017.2 |
| 20260831231455 | 97 | 197 | 4.0 | 12.0 | 0.00 | 0.03 | 0.00 | 62 | 1017.5 |
| 20260831231452 | 96 | 146 | 3.0 | 7.0 | 0.00 | 0.03 | 0.00 | 60 | 1017.5 |
| 20260831231448 | 97 | 161 | 3.0 | 9.0 | 0.00 | 0.03 | 0.00 | 64 | 1017.7 |
| 20260831231445 | 97 | 165 | 2.0 | 9.0 | 0.00 | 0.03 | 0.00 | 66 | 1017.7 |
| 20260831231441 | 96 | 111 | 4.0 | 9.0 | 0.00 | 0.03 | 0.00 | 66 | 1017.7 |
| 20260831231436 | 96 | 291 | 2.0 | 8.0 | 0.00 | 0.03 | 0.00 | 66 | 1017.8 |
| 20260831231434 | 95 | 20 | 2.0 | 7.0 | 0.00 | 0.03 | 0.00 | 68 | 1018.0 |
| 20260831231430 | 95 | 150 | 2.0 | 10.0 | 0.00 | 0.03 | 0.00 | 69 | 1018.1 |
| 20260831231425 | 94 | 321 | 3.0 | 7.0 | 0.00 | 0.03 | 0.00 | 74 | 1018.2 |
| 20260831231423 | 92 | 309 | 2.0 | 6.0 | 0.00 | 0.03 | 0.00 | 71 | 1018.3 |
| 20260831231419 | 93 | 178 | 3.0 | 6.0 | 0.00 | 0.03 | 0.00 | 73 | 1018.4 |
| 20260831231405 | 88 | 242 | 1.0 | 4.0 | 0.00 | 0.03 | 0.00 | 83 | 1018.5 |
| 20260831231357 | 87 | 336 | 1.0 | 5.0 | 0.00 | 0.03 | 0.00 | 83 | 1018.5 |
| 20260831231355 | 87 | 286 | 1.0 | 4.0 | 0.00 | 0.03 | 0.00 | 82 | 1018.5 |
| 20260831231352 | 87 | 265 | 1.0 | 6.0 | 0.00 | 0.03 | 0.00 | 83 | 1018.5 |
| 20260831231347 | 86 | 249 | 1.0 | 5.0 | 0.00 | 0.03 | 0.00 | 85 | 1018.4 |
| 20260831231342 | 86 | 312 | 2.0 | 7.0 | 0.00 | 0.03 | 0.00 | 83 | 1018.3 |
| 20260831231335 | 86 | 93 | 1.0 | 5.0 | 0.00 | 0.03 | 0.00 | 85 | 1018.3 |
| 20260831231332 | 86 | 238 | 2.0 | 5.0 | 0.00 | 0.03 | 0.00 | 87 | 1018.2 |
| 20260831231324 | 85 | 319 | 1.0 | 4.0 | 0.00 | 0.03 | 0.00 | 88 | 1018.2 |
| 20260831231320 | 84 | 188 | 1.0 | 4.0 | 0.00 | 0.03 | 0.00 | 92 | 1018.2 |
| 20260831231317 | 83 | 279 | 1.0 | 4.0 | 0.00 | 0.03 | 0.00 | 93 | 1018.2 |
| 20260831231305 | 81 | 221 | 1.0 | 4.0 | 0.00 | 0.03 | 0.00 | 96 | 1018.1 |
| 20260831231302 | 80 | 309 | 1.0 | 4.0 | 0.00 | 0.03 | 0.00 | 97 | 1018.1 |
| 20260831231259 | 80 | 119 | 1.0 | 5.0 | 0.00 | 0.03 | 0.00 | 97 | 1018.1 |
| 20260831231254 | 79 | 137 | 2.0 | 5.0 | 0.00 | 0.03 | 0.00 | 97 | 1018.1 |
| 20260831231250 | 78 | 58 | 0.0 | 2.0 | 0.00 | 0.03 | 0.00 | 97 | 1018.1 |
| 20260831231247 | 78 | 178 | 1.0 | 2.0 | 0.00 | 0.03 | 0.00 | 97 | 1018.1 |
| 20260831231241 | 77 | 161 | 0.0 | 4.0 | 0.00 | 0.03 | 0.00 | 97 | 1018.1 |
| 20260831231238 | 77 | 93 | 1.0 | 4.0 | 0.00 | 0.03 | 0.00 | 97 | 1018.1 |
| 20260831231230 | 77 | 159 | 1.0 | 4.0 | 0.00 | 0.03 | 0.00 | 97 | 1018.0 |
| 20260831231222 | 77 | 325 | 0.0 | 0.0 | 0.00 | 0.03 | 0.00 | 97 | 1018.1 |
| 20260831231047 | 76 | 171 | 0.0 | 3.0 | 0.00 | 0.03 | 0.00 | 97 | 1018.1 |
| 20260831231040 | 76 | 111 | 0.0 | 2.0 | 0.00 | 0.03 | 0.00 | 97 | 1018.1 |
| 20260831231034 | 76 | 325 | 0.0 | 2.0 | 0.00 | 0.03 | 0.00 | 97 | 1018.1 |
| 20260831231029 | 76 | 119 | 0.0 | 3.0 | 0.00 | 0.03 | 0.00 | 97 | 1018.1 |
| 20260831231025 | 75 | 221 | 1.0 | 3.0 | 0.00 | 0.03 | 0.00 | 97 | 1018.0 |
| 20260831231020 | 75 | 107 | 1.0 | 2.0 | 0.00 | 0.03 | 0.00 | 97 | 1018.0 |
| 20260831231009 | 75 | 93 | 0.0 | 4.0 | 0.00 | 0.03 | 0.00 | 97 | 1018.0 |
| 20260831230958 | 75 | 157 | 0.0 | 2.0 | 0.00 | 0.03 | 0.00 | 97 | 1017.9 |
| 20260831230952 | 74 | 178 | 0.0 | 2.0 | 0.00 | 0.03 | 0.00 | 96 | 1017.8 |
| 20260831230946 | 74 | 153 | 1.0 | 2.0 | 0.00 | 0.03 | 0.00 | 96 | 1017.8 |
| 20260831230940 | 74 | 205 | 0.0 | 2.0 | 0.00 | 0.03 | 0.00 | 97 | 1017.7 |
| 20260831230934 | 74 | 93 | 0.0 | 2.0 | 0.00 | 0.03 | 0.00 | 96 | 1017.7 |
| 20260831230929 | 74 | 26 | 0.0 | 2.0 | 0.00 | 0.03 | 0.00 | 96 | 1017.6 |
| 20260831230921 | 73 | 93 | 0.0 | 2.0 | 0.00 | 0.03 | 0.00 | 96 | 1017.6 |
| 20260831230917 | 73 | 153 | 0.0 | 2.0 | 0.00 | 0.03 | 0.00 | 96 | 1017.6 |
| 20260831230907 | 73 | 93 | 0.0 | 1.0 | 0.00 | 0.03 | 0.00 | 96 | 1017.6 |
| 20260831230858 | 73 | 9 | 0.0 | 1.0 | 0.00 | 0.03 | 0.00 | 96 | 1017.6 |
| 20260831230852 | 73 | 9 | 0.0 | 1.0 | 0.00 | 0.03 | 0.00 | 96 | 1017.5 |
| 20260831230847 | 73 | 67 | 0.0 | 1.0 | 0.00 | 0.03 | 0.00 | 96 | 1017.5 |
| 20260831230840 | 73 | 9 | 0.0 | 1.0 | 0.00 | 0.03 | 0.00 | 96 | 1017.4 |
| 20260831230835 | 73 | 51 | 0.0 | 1.0 | 0.00 | 0.03 | 0.00 | 96 | 1017.4 |
| 20260831230829 | 73 | 93 | 0.0 | 1.0 | 0.00 | 0.03 | 0.00 | 96 | 1017.4 |
| 20260831230825 | 73 | 93 | 0.0 | 1.0 | 0.00 | 0.03 | 0.00 | 96 | 1017.4 |
| 20260831230817 | 73 | 55 | 0.0 | 1.0 | 0.00 | 0.03 | 0.00 | 96 | 1017.3 |
| 20260831230810 | 73 | 41 | 0.0 | 1.0 | 0.00 | 0.03 | 0.00 | 96 | 1017.3 |
| 20260831230757 | 73 | 51 | 0.0 | 1.0 | 0.00 | 0.03 | 0.00 | 96 | 1017.3 |
| 20260831230753 | 73 | 61 | 0.0 | 1.0 | 0.00 | 0.03 | 0.00 | 96 | 1017.3 |
| 20260831230748 | 73 | 58 | 0.0 | 1.0 | 0.00 | 0.03 | 0.00 | 96 | 1017.2 |
| 20260831230743 | 73 | 51 | 0.0 | 1.0 | 0.00 | 0.03 | 0.00 | 96 | 1017.2 |
| 20260831230736 | 73 | 34 | 0.0 | 1.0 | 0.00 | 0.03 | 0.00 | 96 | 1017.3 |
| 20260831230731 | 73 | 93 | 0.0 | 1.0 | 0.00 | 0.03 | 0.00 | 96 | 1017.3 |
| 20260831230724 | 73 | 76 | 0.0 | 1.0 | 0.00 | 0.03 | 0.00 | 96 | 1017.2 |
| 20260831230720 | 73 | 93 | 0.0 | 2.0 | 0.00 | 0.03 | 0.00 | 96 | 1017.2 |
| 20260831230717 | 73 | 76 | 0.0 | 2.0 | 0.00 | 0.03 | 0.00 | 96 | 1017.2 |
| 20260831230700 | 73 | 41 | 0.0 | 2.0 | 0.00 | 0.03 | 0.00 | 96 | 1017.2 |
| 20260831230654 | 73 | 51 | 0.0 | 2.0 | 0.00 | 0.03 | 0.00 | 96 | 1017.3 |
| 20260831230647 | 73 | 67 | 0.0 | 2.0 | 0.00 | 0.03 | 0.00 | 96 | 1017.1 |
| 20260831230639 | 73 | 67 | 0.0 | 2.0 | 0.00 | 0.03 | 0.00 | 96 | 1017.1 |
| 20260831230634 | 73 | 61 | 0.0 | 2.0 | 0.00 | 0.03 | 0.00 | 96 | 1017.1 |
| 20260831230627 | 73 | 67 | 0.0 | 1.0 | 0.00 | 0.03 | 0.00 | 96 | 1017.1 |
| 20260831230620 | 73 | 93 | 0.0 | 1.0 | 0.00 | 0.03 | 0.00 | 96 | 1017.0 |
| 20260831230606 | 73 | 51 | 0.0 | 1.0 | 0.00 | 0.03 | 0.00 | 96 | 1017.0 |
| 20260831230556 | 73 | 119 | 0.0 | 2.0 | 0.00 | 0.03 | 0.00 | 96 | 1017.0 |
| 20260831230552 | 73 | 93 | 0.0 | 2.0 | 0.00 | 0.03 | 0.00 | 96 | 1017.0 |
| 20260831230547 | 73 | 67 | 0.0 | 2.0 | 0.00 | 0.03 | 0.00 | 95 | 1017.0 |
| 20260831230541 | 73 | 93 | 0.0 | 2.0 | 0.00 | 0.03 | 0.00 | 95 | 1017.0 |
| 20260831230533 | 73 | 34 | 0.0 | 2.0 | 0.00 | 0.03 | 0.00 | 95 | 1017.0 |
| 20260831230528 | 73 | 9 | 0.0 | 2.0 | 0.00 | 0.03 | 0.00 | 95 | 1017.0 |
| 20260831230522 | 73 | 26 | 0.0 | 1.0 | 0.00 | 0.03 | 0.00 | 95 | 1016.9 |
| 20260831230519 | 73 | 61 | 0.0 | 1.0 | 0.00 | 0.03 | 0.00 | 95 | 1016.9 |
| 20260831230510 | 73 | 34 | 0.0 | 1.0 | 0.00 | 0.03 | 0.00 | 95 | 1017.0 |
| 20260831230459 | 73 | 67 | 0.0 | 2.0 | 0.00 | 0.03 | 0.00 | 95 | 1016.9 |
| 20260831230454 | 73 | 119 | 0.0 | 2.0 | 0.00 | 0.03 | 0.00 | 95 | 1017.0 |
| 20260831230444 | 73 | 67 | 0.0 | 2.0 | 0.00 | 0.03 | 0.00 | 95 | 1016.9 |
| 20260831230437 | 73 | 61 | 0.0 | 2.0 | 0.00 | 0.03 | 0.00 | 95 | 1017.0 |
| 20260831230431 | 73 | 26 | 0.0 | 1.0 | 0.00 | 0.03 | 0.00 | 95 | 1017.0 |
| 20260831230424 | 74 | 93 | 0.0 | 2.0 | 0.00 | 0.03 | 0.00 | 95 | 1016.9 |
| 20260831230418 | 74 | 76 | 1.0 | 2.0 | 0.00 | 0.03 | 0.00 | 95 | 1016.9 |
| 20260831230407 | 74 | 67 | 0.0 | 1.0 | 0.00 | 0.03 | 0.00 | 95 | 1016.9 |
| 20260831230358 | 74 | 93 | 0.0 | 1.0 | 0.00 | 0.03 | 0.00 | 95 | 1016.9 |
| 20260831230350 | 74 | 93 | 0.0 | 1.0 | 0.00 | 0.03 | 0.00 | 95 | 1016.9 |
| 20260831230343 | 74 | 51 | 0.0 | 1.0 | 0.00 | 0.03 | 0.00 | 95 | 1016.9 |
| 20260831230340 | 74 | 80 | 0.0 | 1.0 | 0.00 | 0.03 | 0.00 | 95 | 1016.9 |
| 20260831230332 | 74 | 67 | 0.0 | 1.0 | 0.00 | 0.03 | 0.00 | 95 | 1016.9 |
| 20260831230324 | 74 | 67 | 0.0 | 1.0 | 0.00 | 0.03 | 0.00 | 95 | 1016.8 |
| 20260831230321 | 74 | 93 | 0.0 | 1.0 | 0.00 | 0.03 | 0.00 | 95 | 1016.8 |
| 20260831230311 | 74 | 93 | 0.0 | 1.0 | 0.00 | 0.03 | 0.00 | 95 | 1016.9 |
| 20260831230256 | 74 | 67 | 0.0 | 1.0 | 0.00 | 0.03 | 0.00 | 95 | 1016.7 |
| 20260831230254 | 74 | 51 | 0.0 | 2.0 | 0.00 | 0.03 | 0.00 | 95 | 1016.6 |
| 20260831230246 | 74 | 51 | 0.0 | 2.0 | 0.00 | 0.03 | 0.00 | 95 | 1016.8 |
| 20260831230239 | 74 | 93 | 1.0 | 2.0 | 0.00 | 0.03 | 0.00 | 95 | 1016.7 |
| 20260831230232 | 74 | 111 | 0.0 | 2.0 | 0.00 | 0.03 | 0.00 | 95 | 1016.8 |
| 20260831230228 | 74 | 34 | 0.0 | 2.0 | 0.00 | 0.03 | 0.00 | 95 | 1016.8 |
| 20260831230222 | 74 | 93 | 0.0 | 2.0 | 0.00 | 0.03 | 0.00 | 95 | 1016.8 |
| 20260831230220 | 74 | 119 | 0.0 | 2.0 | 0.00 | 0.03 | 0.00 | 95 | 1016.8 |
| 20260831230203 | 74 | 83 | 1.0 | 2.0 | 0.00 | 0.03 | 0.00 | 95 | 1016.9 |
| 20260831230155 | 74 | 58 | 1.0 | 2.0 | 0.00 | 0.03 | 0.00 | 94 | 1016.7 |
| 20260831230150 | 74 | 93 | 1.0 | 2.0 | 0.00 | 0.03 | 0.00 | 94 | 1016.6 |
| 20260831230145 | 74 | 34 | 0.0 | 2.0 | 0.00 | 0.03 | 0.00 | 94 | 1016.6 |
| 20260831230143 | 74 | 26 | 0.0 | 2.0 | 0.00 | 0.03 | 0.00 | 94 | 1016.6 |
| 20260831230141 | 75 | 93 | 0.0 | 2.0 | 0.00 | 0.03 | 0.00 | 94 | 1016.6 |
| 20260831230139 | 75 | 93 | 0.0 | 2.0 | 0.00 | 0.03 | 0.00 | 94 | 1016.6 |
| 20260831230109 | 75 | 93 | 0.0 | 2.0 | 0.00 | 0.03 | 0.00 | 94 | 1016.5 |
| 20260831230058 | 75 | 93 | 0.0 | 2.0 | 0.00 | 0.03 | 0.00 | 94 | 1016.7 |
| 20260831230052 | 75 | 93 | 0.0 | 2.0 | 0.00 | 0.03 | 0.00 | 94 | 1016.7 |
| 20260831230018 | 75 | 67 | 0.0 | 2.0 | 0.00 | 0.03 | 0.00 | 94 | 1016.6 |
| 20260831230000 | 75 | 61 | 0.0 | 2.0 | 0.00 | 0.03 | 0.00 | 94 | 1016.8 |
| 20260831225952 | 75 | 93 | 0.0 | 2.0 | 0.00 | 0.03 | 0.00 | 94 | 1016.8 |
| 20260831225949 | 75 | 9 | 0.0 | 2.0 | 0.00 | 0.03 | 0.03 | 94 | 1016.8 |
| 20260831225942 | 75 | 67 | 1.0 | 2.0 | 0.00 | 0.03 | 0.03 | 93 | 1016.7 |
| 20260831225939 | 75 | 67 | 0.0 | 2.0 | 0.00 | 0.03 | 0.03 | 93 | 1016.8 |
| 20260831225936 | 75 | 67 | 0.0 | 2.0 | 0.00 | 0.03 | 0.03 | 93 | 1016.8 |
| 20260831225929 | 75 | 58 | 0.0 | 2.0 | 0.00 | 0.03 | 0.03 | 93 | 1016.7 |
| 20260831225923 | 75 | 76 | 0.0 | 2.0 | 0.00 | 0.03 | 0.03 | 93 | 1016.6 |
| 20260831225920 | 75 | 111 | 1.0 | 2.0 | 0.00 | 0.03 | 0.03 | 93 | 1016.6 |
| 20260831225914 | 75 | 80 | 0.0 | 2.0 | 0.00 | 0.03 | 0.03 | 93 | 1016.6 |
| 20260831225858 | 75 | 34 | 0.0 | 2.0 | 0.00 | 0.03 | 0.03 | 93 | 1016.6 |
| 20260831225856 | 75 | 93 | 0.0 | 2.0 | 0.00 | 0.03 | 0.03 | 93 | 1016.7 |
| 20260831225854 | 75 | 178 | 0.0 | 2.0 | 0.00 | 0.03 | 0.03 | 93 | 1016.7 |
| 20260831225852 | 76 | 265 | 0.0 | 2.0 | 0.00 | 0.03 | 0.03 | 93 | 1016.7 |
| 20260831225847 | 76 | 93 | 1.0 | 2.0 | 0.00 | 0.03 | 0.03 | 93 | 1016.6 |
| 20260831225841 | 76 | 93 | 0.0 | 2.0 | 0.00 | 0.03 | 0.03 | 93 | 1016.4 |
| 20260831225839 | 76 | 111 | 0.0 | 2.0 | 0.00 | 0.03 | 0.03 | 93 | 1016.4 |
| 20260831225835 | 76 | 41 | 0.0 | 2.0 | 0.00 | 0.03 | 0.03 | 93 | 1016.4 |
| 20260831225828 | 76 | 119 | 0.0 | 2.0 | 0.00 | 0.03 | 0.03 | 93 | 1016.3 |
| 20260831225824 | 76 | 119 | 0.0 | 2.0 | 0.00 | 0.03 | 0.03 | 92 | 1015.9 |
| 20260831225821 | 76 | 9 | 0.0 | 2.0 | 0.00 | 0.03 | 0.03 | 92 | 1015.8 |
| 20260831225814 | 77 | 146 | 1.0 | 3.0 | 0.00 | 0.03 | 0.03 | 92 | 1015.6 |
| 20260831225803 | 77 | 51 | 0.0 | 3.0 | 0.00 | 0.03 | 0.03 | 92 | 1015.5 |
| 20260831225759 | 77 | 129 | 1.0 | 3.0 | 0.00 | 0.03 | 0.03 | 92 | 1015.3 |
| 20260831225755 | 77 | 196 | 0.0 | 2.0 | 0.00 | 0.03 | 0.03 | 92 | 1015.3 |
| 20260831225751 | 77 | 291 | 0.0 | 4.0 | 0.00 | 0.03 | 0.03 | 92 | 1015.1 |
| 20260831225746 | 77 | 234 | 1.0 | 4.0 | 0.01 | 0.03 | 0.03 | 93 | 1015.0 |
| 20260831225743 | 77 | 325 | 1.0 | 3.0 | 0.01 | 0.03 | 0.03 | 93 | 1015.4 |
| 20260831225740 | 77 | 163 | 2.0 | 5.0 | 0.01 | 0.03 | 0.03 | 93 | 1014.9 |
| 20260831225736 | 77 | 178 | 1.0 | 3.0 | 0.01 | 0.03 | 0.03 | 92 | 1015.1 |
| 20260831225729 | 77 | 93 | 1.0 | 3.0 | 0.01 | 0.03 | 0.03 | 92 | 1015.0 |
| 20260831225722 | 77 | 105 | 1.0 | 3.0 | 0.00 | 0.02 | 0.02 | 92 | 1014.4 |
| 20260831225719 | 78 | 34 | 1.0 | 3.0 | 0.02 | 0.02 | 0.02 | 91 | 1014.6 |
| 20260831225704 | 78 | 300 | 1.0 | 3.0 | 0.02 | 0.02 | 0.02 | 90 | 1014.7 |
| 20260831225700 | 78 | 87 | 1.0 | 4.0 | 0.02 | 0.02 | 0.02 | 89 | 1014.5 |
| 20260831225656 | 79 | 221 | 0.0 | 3.0 | 0.02 | 0.02 | 0.02 | 88 | 1014.7 |
| 20260831225651 | 79 | 153 | 0.0 | 2.0 | 0.00 | 0.00 | 0.00 | 87 | 1015.3 |
| 20260831225648 | 79 | 111 | 0.0 | 2.0 | 0.00 | 0.00 | 0.00 | 87 | 1015.8 |
| 20260831225642 | 80 | 107 | 1.0 | 8.0 | 0.00 | 0.00 | 0.00 | 85 | 1016.6 |
| 20260831225635 | 81 | 119 | 2.0 | 4.0 | 0.00 | 0.00 | 0.00 | 81 | 1016.4 |
| 20260831225629 | 81 | 111 | 1.0 | 4.0 | 0.00 | 0.00 | 0.00 | 78 | 1016.3 |
| 20260831225624 | 82 | 51 | 3.0 | 21.0 | 0.00 | 0.00 | 0.00 | 74 | 1016.1 |
| 20260831225619 | 85 | 153 | 4.0 | 12.0 | 0.00 | 0.00 | 0.00 | 71 | 1014.1 |
| 20260831225613 | 86 | 150 | 6.0 | 17.0 | 0.00 | 0.00 | 0.00 | 71 | 1014.2 |
| 20260831225606 | 87 | 196 | 5.0 | 17.0 | 0.00 | 0.00 | 0.00 | 71 | 1014.3 |
| 20260831225601 | 87 | 205 | 6.0 | 14.0 | 0.00 | 0.00 | 0.00 | 71 | 1014.2 |
| 20260831225557 | 88 | 178 | 5.0 | 13.0 | 0.00 | 0.00 | 0.00 | 74 | 1014.7 |
| 20260831225554 | 87 | 206 | 7.0 | 20.0 | 0.00 | 0.00 | 0.00 | 73 | 1015.3 |
| 20260831225547 | 92 | 190 | 5.0 | 17.0 | 0.00 | 0.00 | 0.00 | 64 | 1014.6 |
| 20260831225540 | 97 | 113 | 4.0 | 9.0 | 0.00 | 0.00 | 0.00 | 59 | 1014.3 |
| 20260831225536 | 98 | 28 | 3.0 | 13.0 | 0.00 | 0.00 | 0.00 | 59 | 1014.2 |
| 20260831225534 | 102 | 119 | 3.0 | 11.0 | 0.00 | 0.00 | 0.00 | 54 | 1014.3 |
| 20260831225529 | 104 | 113 | 3.0 | 8.0 | 0.00 | 0.00 | 0.00 | 53 | 1014.6 |
| 20260831225527 | 102 | 121 | 3.0 | 8.0 | 0.00 | 0.00 | 0.00 | 57 | 1014.8 |
| 20260831225523 | 100 | 22 | 2.0 | 6.0 | 0.00 | 0.00 | 0.00 | 57 | 1015.1 |
| 20260831225521 | 100 | 78 | 2.0 | 7.0 | 0.00 | 0.00 | 0.00 | 61 | 1015.6 |
| 20260831225512 | 98 | 51 | 1.0 | 8.0 | 0.00 | 0.00 | 0.00 | 62 | 1015.8 |
| 20260831225505 | 99 | 119 | 2.0 | 9.0 | 0.00 | 0.00 | 0.00 | 62 | 1015.9 |
| 20260831225501 | 100 | 280 | 2.0 | 9.0 | 0.00 | 0.00 | 0.00 | 61 | 1016.0 |
| 20260831225459 | 99 | 171 | 3.0 | 7.0 | 0.00 | 0.00 | 0.00 | 63 | 1016.2 |
| 20260831225455 | 99 | 137 | 3.0 | 8.0 | 0.00 | 0.00 | 0.00 | 62 | 1016.2 |
| 20260831225451 | 97 | 245 | 3.0 | 9.0 | 0.00 | 0.00 | 0.00 | 64 | 1016.2 |
| 20260831225445 | 96 | 178 | 2.0 | 6.0 | 0.00 | 0.00 | 0.00 | 65 | 1016.7 |
| 20260831225442 | 97 | 275 | 2.0 | 6.0 | 0.00 | 0.00 | 0.00 | 65 | 1016.9 |
| 20260831225438 | 97 | 9 | 1.0 | 8.0 | 0.00 | 0.00 | 0.00 | 69 | 1017.0 |
| 20260831225432 | 96 | 200 | 3.0 | 7.0 | 0.00 | 0.00 | 0.00 | 69 | 1017.0 |
| 20260831225427 | 95 | 209 | 2.0 | 7.0 | 0.00 | 0.00 | 0.00 | 67 | 1017.1 |
| 20260831225423 | 95 | 265 | 3.0 | 7.0 | 0.00 | 0.00 | 0.00 | 69 | 1017.1 |
| 20260831225420 | 95 | 178 | 2.0 | 7.0 | 0.00 | 0.00 | 0.00 | 69 | 1017.4 |
| 20260831225417 | 94 | 159 | 3.0 | 9.0 | 0.00 | 0.00 | 0.00 | 72 | 1017.4 |
| 20260831225412 | 92 | 189 | 4.0 | 9.0 | 0.00 | 0.00 | 0.00 | 74 | 1017.4 |
| 20260831225402 | 92 | 76 | 1.0 | 8.0 | 0.00 | 0.00 | 0.00 | 73 | 1017.4 |
| 20260831225358 | 91 | 242 | 2.0 | 6.0 | 0.00 | 0.00 | 0.00 | 71 | 1017.6 |
| 20260831225355 | 91 | 250 | 1.0 | 7.0 | 0.00 | 0.00 | 0.00 | 75 | 1017.5 |
| 20260831225350 | 90 | 255 | 1.0 | 6.0 | 0.00 | 0.00 | 0.00 | 75 | 1017.4 |
| 20260831225348 | 90 | 306 | 1.0 | 6.0 | 0.00 | 0.00 | 0.00 | 75 | 1017.5 |
| 20260831225341 | 90 | 265 | 2.0 | 9.0 | 0.00 | 0.00 | 0.00 | 78 | 1017.4 |
| 20260831225337 | 89 | 240 | 1.0 | 7.0 | 0.00 | 0.00 | 0.00 | 79 | 1017.4 |
| 20260831225333 | 88 | 159 | 3.0 | 10.0 | 0.00 | 0.00 | 0.00 | 82 | 1017.4 |
| 20260831225328 | 87 | 330 | 1.0 | 7.0 | 0.00 | 0.00 | 0.00 | 82 | 1017.4 |
| 20260831225324 | 86 | 229 | 3.0 | 8.0 | 0.00 | 0.00 | 0.00 | 83 | 1017.4 |
| 20260831225319 | 85 | 291 | 1.0 | 9.0 | 0.00 | 0.00 | 0.00 | 86 | 1017.2 |
| 20260831225315 | 84 | 171 | 1.0 | 6.0 | 0.00 | 0.00 | 0.00 | 88 | 1016.9 |
| 20260831225300 | 83 | 284 | 1.0 | 5.0 | 0.00 | 0.00 | 0.00 | 90 | 1016.8 |
| 20260831225257 | 82 | 76 | 0.0 | 3.0 | 0.00 | 0.00 | 0.00 | 92 | 1016.7 |
| 20260831225254 | 82 | 279 | 1.0 | 5.0 | 0.00 | 0.00 | 0.00 | 93 | 1016.7 |
| 20260831225247 | 81 | 200 | 1.0 | 5.0 | 0.00 | 0.00 | 0.00 | 93 | 1016.6 |
| 20260831225243 | 81 | 178 | 0.0 | 2.0 | 0.00 | 0.00 | 0.00 | 93 | 1016.5 |
| 20260831225240 | 81 | 51 | 0.0 | 2.0 | 0.00 | 0.00 | 0.00 | 93 | 1016.4 |
| 20260831225235 | 81 | 338 | 1.0 | 2.0 | 0.00 | 0.00 | 0.00 | 93 | 1016.3 |
| 20260831225231 | 81 | 325 | 0.0 | 2.0 | 0.00 | 0.00 | 0.00 | 92 | 1016.1 |
| 20260831225227 | 81 | 119 | 1.0 | 3.0 | 0.00 | 0.00 | 0.00 | 92 | 1016.1 |
| 20260831225223 | 81 | 300 | 0.0 | 3.0 | 0.00 | 0.00 | 0.00 | 92 | 1016.1 |
| 20260831225219 | 81 | 184 | 1.0 | 5.0 | 0.00 | 0.00 | 0.00 | 92 | 1016.4 |
| 20260831225215 | 81 | 221 | 1.0 | 5.0 | 0.00 | 0.00 | 0.00 | 92 | 1016.5 |
| 20260831225204 | 81 | 111 | 0.0 | 3.0 | 0.00 | 0.00 | 0.00 | 93 | 1016.4 |
| 20260831225159 | 81 | 34 | 0.0 | 3.0 | 0.00 | 0.00 | 0.00 | 92 | 1016.6 |
| 20260831225156 | 81 | 103 | 1.0 | 3.0 | 0.00 | 0.00 | 0.00 | 92 | 1016.4 |
| 20260831225152 | 81 | 93 | 1.0 | 2.0 | 0.00 | 0.00 | 0.00 | 92 | 1016.2 |
| 20260831225147 | 81 | 34 | 0.0 | 2.0 | 0.00 | 0.00 | 0.00 | 92 | 1016.0 |
| 20260831225144 | 81 | 137 | 0.0 | 2.0 | 0.00 | 0.00 | 0.00 | 91 | 1016.0 |
| 20260831225140 | 81 | 51 | 0.0 | 2.0 | 0.00 | 0.00 | 0.00 | 91 | 1015.8 |
| 20260831225137 | 81 | 119 | 0.0 | 2.0 | 0.00 | 0.00 | 0.00 | 91 | 1015.7 |
| 20260831225133 | 81 | 111 | 0.0 | 2.0 | 0.00 | 0.00 | 0.00 | 91 | 1015.4 |
| 20260831225128 | 81 | 171 | 1.0 | 3.0 | 0.00 | 0.00 | 0.00 | 91 | 1015.3 |
| 20260831225125 | 81 | 205 | 0.0 | 4.0 | 0.00 | 0.00 | 0.00 | 91 | 1015.2 |
| 20260831225120 | 81 | 205 | 1.0 | 4.0 | 0.00 | 0.00 | 0.00 | 90 | 1015.2 |
| 20260831225113 | 81 | 141 | 1.0 | 4.0 | 0.00 | 0.00 | 0.00 | 90 | 1015.2 |
| 20260831225104 | 81 | 309 | 0.0 | 2.0 | 0.00 | 0.00 | 0.00 | 90 | 1015.1 |
| 20260831225056 | 82 | 148 | 2.0 | 6.0 | 0.00 | 0.00 | 0.00 | 90 | 1015.2 |
| 20260831225048 | 82 | 137 | 1.0 | 5.0 | 0.00 | 0.00 | 0.00 | 90 | 1015.5 |
| 20260831225043 | 82 | 161 | 1.0 | 4.0 | 0.00 | 0.00 | 0.00 | 89 | 1015.5 |
| 20260831225039 | 82 | 209 | 2.0 | 5.0 | 0.00 | 0.00 | 0.00 | 89 | 1015.3 |
| 20260831225034 | 82 | 178 | 1.0 | 4.0 | 0.00 | 0.00 | 0.00 | 89 | 1015.4 |
| 20260831225032 | 82 | 161 | 1.0 | 3.0 | 0.00 | 0.00 | 0.00 | 88 | 1015.5 |
| 20260831225027 | 82 | 137 | 0.0 | 3.0 | 0.00 | 0.00 | 0.00 | 88 | 1015.5 |
| 20260831225021 | 82 | 178 | 1.0 | 5.0 | 0.00 | 0.00 | 0.00 | 88 | 1015.6 |
| 20260831225017 | 82 | 161 | 1.0 | 2.0 | 0.00 | 0.00 | 0.00 | 88 | 1015.7 |
| 20260831225015 | 82 | 137 | 1.0 | 5.0 | 0.00 | 0.00 | 0.00 | 87 | 1015.6 |
| 20260831225007 | 82 | 121 | 2.0 | 5.0 | 0.00 | 0.00 | 0.00 | 87 | 1015.6 |
| 20260831225002 | 82 | 119 | 1.0 | 4.0 | 0.00 | 0.00 | 0.00 | 87 | 1015.6 |
| 20260831224955 | 83 | 51 | 1.0 | 7.0 | 0.00 | 0.00 | 0.00 | 86 | 1015.5 |
| 20260831224950 | 83 | 170 | 2.0 | 7.0 | 0.00 | 0.00 | 0.00 | 86 | 1015.3 |
| 20260831224946 | 83 | 238 | 1.0 | 6.0 | 0.00 | 0.00 | 0.00 | 85 | 1015.3 |
| 20260831224942 | 83 | 126 | 2.0 | 5.0 | 0.00 | 0.00 | 0.00 | 85 | 1015.2 |
| 20260831224934 | 83 | 193 | 2.0 | 7.0 | 0.00 | 0.00 | 0.00 | 84 | 1015.2 |
| 20260831224931 | 83 | 93 | 2.0 | 7.0 | 0.00 | 0.00 | 0.00 | 84 | 1015.3 |
| 20260831224926 | 83 | 161 | 2.0 | 5.0 | 0.00 | 0.00 | 0.00 | 83 | 1015.5 |
| 20260831224923 | 84 | 171 | 2.0 | 5.0 | 0.00 | 0.00 | 0.00 | 82 | 1015.5 |
| 20260831224919 | 84 | 171 | 2.0 | 8.0 | 0.00 | 0.00 | 0.00 | 80 | 1014.7 |
| 20260831224859 | 85 | 171 | 1.0 | 11.0 | 0.00 | 0.00 | 0.00 | 78 | 1014.6 |
| 20260831224856 | 85 | 171 | 2.0 | 6.0 | 0.00 | 0.00 | 0.00 | 77 | 1014.7 |
| 20260831224851 | 86 | 175 | 3.0 | 13.0 | 0.00 | 0.00 | 0.00 | 76 | 1014.5 |
| 20260831224844 | 86 | 178 | 3.0 | 11.0 | 0.00 | 0.00 | 0.00 | 73 | 1014.1 |
| 20260831224840 | 87 | 187 | 4.0 | 8.0 | 0.00 | 0.00 | 0.00 | 73 | 1013.8 |
| 20260831224835 | 87 | 221 | 5.0 | 11.0 | 0.00 | 0.00 | 0.00 | 72 | 1013.7 |
| 20260831224832 | 88 | 192 | 5.0 | 12.0 | 0.00 | 0.00 | 0.00 | 71 | 1013.2 |
| 20260831224829 | 88 | 143 | 6.0 | 15.0 | 0.00 | 0.00 | 0.00 | 70 | 1013.0 |
| 20260831224825 | 89 | 189 | 5.0 | 13.0 | 0.00 | 0.00 | 0.00 | 70 | 1012.8 |
| 20260831224819 | 89 | 165 | 4.0 | 13.0 | 0.00 | 0.00 | 0.00 | 69 | 1012.5 |
| 20260831224814 | 91 | 153 | 5.0 | 12.0 | 0.00 | 0.00 | 0.00 | 67 | 1012.4 |
| 20260831224801 | 92 | 171 | 4.0 | 13.0 | 0.00 | 0.00 | 0.00 | 65 | 1012.2 |
| 20260831224759 | 92 | 182 | 5.0 | 15.0 | 0.00 | 0.00 | 0.00 | 65 | 1012.1 |
| 20260831224753 | 93 | 132 | 7.0 | 15.0 | 0.00 | 0.00 | 0.00 | 65 | 1011.7 |
| 20260831224749 | 94 | 163 | 6.0 | 14.0 | 0.00 | 0.00 | 0.00 | 63 | 1011.6 |
| 20260831224741 | 97 | 215 | 5.0 | 11.0 | 0.00 | 0.00 | 0.00 | 54 | 1011.0 |
| 20260831224737 | 97 | 178 | 3.0 | 11.0 | 0.00 | 0.00 | 0.00 | 54 | 1011.0 |
| 20260831224734 | 99 | 162 | 3.0 | 10.0 | 0.00 | 0.00 | 0.00 | 53 | 1011.0 |
| 20260831224727 | 102 | 175 | 2.0 | 8.0 | 0.00 | 0.00 | 0.00 | 50 | 1011.2 |
| 20260831224723 | 103 | 190 | 3.0 | 16.0 | 0.00 | 0.00 | 0.00 | 48 | 1011.2 |
| 20260831224719 | 104 | 186 | 4.0 | 10.0 | 0.00 | 0.00 | 0.00 | 46 | 1011.0 |
| 20260831224705 | 105 | 173 | 5.0 | 10.0 | 0.00 | 0.00 | 0.00 | 45 | 1010.9 |
| 20260831224701 | 104 | 119 | 1.0 | 10.0 | 0.00 | 0.00 | 0.00 | 46 | 1010.9 |
| 20260831224655 | 104 | 232 | 3.0 | 11.0 | 0.00 | 0.00 | 0.00 | 46 | 1011.0 |
| 20260831224651 | 103 | 202 | 4.0 | 9.0 | 0.00 | 0.00 | 0.00 | 49 | 1011.4 |
| 20260831224645 | 102 | 211 | 1.0 | 8.0 | 0.00 | 0.00 | 0.00 | 50 | 1011.5 |
| 20260831224641 | 101 | 265 | 1.0 | 8.0 | 0.00 | 0.00 | 0.00 | 49 | 1011.7 |
| 20260831224637 | 102 | 265 | 1.0 | 6.0 | 0.00 | 0.00 | 0.00 | 49 | 1011.7 |
| 20260831224633 | 101 | 227 | 1.0 | 9.0 | 0.00 | 0.00 | 0.00 | 50 | 1011.9 |
| 20260831224630 | 103 | 190 | 2.0 | 9.0 | 0.00 | 0.00 | 0.00 | 49 | 1012.3 |
| 20260831224628 | 101 | 249 | 2.0 | 10.0 | 0.00 | 0.00 | 0.00 | 52 | 1013.3 |
| 20260831224619 | 100 | 9 | 3.0 | 9.0 | 0.00 | 0.00 | 0.00 | 56 | 1013.6 |
| 20260831224611 | 99 | 153 | 3.0 | 10.0 | 0.00 | 0.00 | 0.00 | 61 | 1013.6 |
| 20260831224601 | 98 | 182 | 4.0 | 12.0 | 0.00 | 0.00 | 0.00 | 60 | 1013.8 |
| 20260831224546 | 95 | 67 | 4.0 | 11.0 | 0.00 | 0.00 | 0.00 | 67 | 1014.8 |
| 20260831224538 | 94 | 148 | 3.0 | 11.0 | 0.00 | 0.00 | 0.00 | 69 | 1014.9 |
| 20260831224535 | 94 | 171 | 5.0 | 10.0 | 0.00 | 0.00 | 0.00 | 69 | 1015.1 |
| 20260831224531 | 93 | 185 | 4.0 | 11.0 | 0.00 | 0.00 | 0.00 | 71 | 1015.3 |
| 20260831224514 | 93 | 254 | 4.0 | 7.0 | 0.00 | 0.00 | 0.00 | 70 | 1015.3 |
| 20260831224504 | 93 | 255 | 2.0 | 7.0 | 0.00 | 0.00 | 0.00 | 73 | 1015.3 |
| 20260831224502 | 93 | 221 | 1.0 | 11.0 | 0.00 | 0.00 | 0.00 | 72 | 1015.3 |
| 20260831224457 | 93 | 279 | 2.0 | 12.0 | 0.00 | 0.00 | 0.00 | 73 | 1015.3 |
| 20260831224453 | 91 | 247 | 4.0 | 10.0 | 0.00 | 0.00 | 0.00 | 74 | 1015.4 |
| 20260831224450 | 90 | 119 | 2.0 | 14.0 | 0.00 | 0.00 | 0.00 | 76 | 1015.4 |
| 20260831224445 | 90 | 153 | 3.0 | 9.0 | 0.00 | 0.00 | 0.00 | 76 | 1015.4 |
| 20260831224441 | 88 | 205 | 4.0 | 11.0 | 0.00 | 0.00 | 0.00 | 79 | 1015.4 |
| 20260831224437 | 87 | 196 | 3.0 | 10.0 | 0.00 | 0.00 | 0.00 | 80 | 1015.6 |
| 20260831224434 | 86 | 173 | 3.0 | 11.0 | 0.00 | 0.00 | 0.00 | 81 | 1015.6 |
| 20260831224431 | 86 | 178 | 2.0 | 7.0 | 0.00 | 0.00 | 0.00 | 81 | 1015.7 |
| 20260831224428 | 86 | 200 | 2.0 | 6.0 | 0.00 | 0.00 | 0.00 | 80 | 1015.7 |
| 20260831224425 | 85 | 200 | 2.0 | 8.0 | 0.00 | 0.00 | 0.00 | 81 | 1015.7 |
| 20260831224419 | 85 | 157 | 2.0 | 9.0 | 0.00 | 0.00 | 0.00 | 81 | 1015.9 |
| 20260831224409 | 84 | 325 | 3.0 | 9.0 | 0.00 | 0.00 | 0.00 | 80 | 1015.5 |
| 20260831224359 | 84 | 265 | 3.0 | 9.0 | 0.00 | 0.00 | 0.00 | 83 | 1015.4 |
| 20260831224356 | 83 | 295 | 2.0 | 10.0 | 0.00 | 0.00 | 0.00 | 86 | 1015.6 |
| 20260831224347 | 83 | 297 | 3.0 | 11.0 | 0.00 | 0.00 | 0.00 | 87 | 1015.4 |
| 20260831224340 | 82 | 271 | 1.0 | 7.0 | 0.00 | 0.00 | 0.00 | 90 | 1015.4 |
| 20260831224336 | 81 | 302 | 2.0 | 7.0 | 0.00 | 0.00 | 0.00 | 91 | 1015.4 |
| 20260831224330 | 81 | 277 | 2.0 | 6.0 | 0.00 | 0.00 | 0.00 | 91 | 1015.5 |
| 20260831224326 | 81 | 321 | 1.0 | 4.0 | 0.00 | 0.00 | 0.00 | 92 | 1015.5 |
| 20260831224323 | 80 | 309 | 0.0 | 2.0 | 0.00 | 0.00 | 0.00 | 93 | 1015.4 |
| 20260831224319 | 80 | 93 | 1.0 | 5.0 | 0.00 | 0.00 | 0.00 | 93 | 1015.4 |
| 20260831224317 | 80 | 327 | 1.0 | 5.0 | 0.00 | 0.00 | 0.00 | 93 | 1015.4 |
| 20260831224303 | 80 | 309 | 1.0 | 3.0 | 0.00 | 0.00 | 0.00 | 93 | 1015.3 |
| 20260831224258 | 79 | 51 | 0.0 | 3.0 | 0.00 | 0.00 | 0.00 | 93 | 1015.1 |
| 20260831224253 | 79 | 51 | 0.0 | 3.0 | 0.00 | 0.00 | 0.00 | 93 | 1014.8 |
| 20260831224248 | 79 | 9 | 0.0 | 3.0 | 0.00 | 0.00 | 0.00 | 93 | 1014.8 |
| 20260831224245 | 80 | 153 | 0.0 | 8.0 | 0.00 | 0.00 | 0.00 | 93 | 1014.7 |
| 20260831224240 | 80 | 288 | 2.0 | 7.0 | 0.00 | 0.00 | 0.00 | 93 | 1014.6 |
| 20260831224236 | 80 | 313 | 2.0 | 6.0 | 0.00 | 0.00 | 0.00 | 93 | 1014.6 |
| 20260831224233 | 80 | 93 | 2.0 | 5.0 | 0.00 | 0.00 | 0.00 | 93 | 1014.5 |
| 20260831224230 | 80 | 265 | 0.0 | 3.0 | 0.00 | 0.00 | 0.00 | 92 | 1013.7 |
| 20260831224226 | 80 | 238 | 0.0 | 4.0 | 0.00 | 0.00 | 0.00 | 92 | 1013.9 |
| 20260831224220 | 80 | 234 | 1.0 | 6.0 | 0.00 | 0.00 | 0.00 | 92 | 1013.8 |
| 20260831224211 | 80 | 234 | 1.0 | 5.0 | 0.00 | 0.00 | 0.00 | 92 | 1013.7 |
| 20260831224200 | 80 | 161 | 1.0 | 6.0 | 0.00 | 0.00 | 0.00 | 92 | 1013.6 |
| 20260831224156 | 80 | 178 | 1.0 | 5.0 | 0.00 | 0.00 | 0.00 | 92 | 1013.7 |
| 20260831224153 | 80 | 211 | 1.0 | 5.0 | 0.00 | 0.00 | 0.00 | 92 | 1013.7 |
| 20260831224146 | 80 | 265 | 2.0 | 5.0 | 0.00 | 0.00 | 0.00 | 92 | 1013.9 |
| 20260831224140 | 80 | 190 | 1.0 | 5.0 | 0.00 | 0.00 | 0.00 | 92 | 1013.9 |
| 20260831224136 | 81 | 178 | 1.0 | 4.0 | 0.00 | 0.00 | 0.00 | 92 | 1013.9 |
| 20260831224134 | 81 | 225 | 1.0 | 5.0 | 0.00 | 0.00 | 0.00 | 91 | 1013.9 |
| 20260831224128 | 81 | 309 | 1.0 | 6.0 | 0.00 | 0.00 | 0.00 | 91 | 1013.9 |
| 20260831224119 | 81 | 225 | 1.0 | 5.0 | 0.00 | 0.00 | 0.00 | 90 | 1014.0 |
| 20260831224111 | 81 | 196 | 1.0 | 5.0 | 0.00 | 0.00 | 0.00 | 90 | 1013.9 |
| 20260831224100 | 82 | 250 | 1.0 | 6.0 | 0.00 | 0.00 | 0.00 | 90 | 1014.0 |
| 20260831224055 | 82 | 214 | 2.0 | 9.0 | 0.00 | 0.00 | 0.00 | 90 | 1014.0 |
| 20260831224051 | 82 | 163 | 2.0 | 7.0 | 0.00 | 0.00 | 0.00 | 89 | 1014.2 |
| 20260831224045 | 82 | 171 | 2.0 | 5.0 | 0.00 | 0.00 | 0.00 | 89 | 1014.2 |
| 20260831224041 | 82 | 177 | 2.0 | 10.0 | 0.00 | 0.00 | 0.00 | 89 | 1014.4 |
| 20260831224037 | 82 | 190 | 3.0 | 9.0 | 0.00 | 0.00 | 0.00 | 89 | 1014.5 |
| 20260831224033 | 82 | 161 | 3.0 | 9.0 | 0.00 | 0.00 | 0.00 | 89 | 1014.5 |
| 20260831224029 | 82 | 167 | 4.0 | 10.0 | 0.00 | 0.00 | 0.00 | 89 | 1014.6 |
| 20260831224026 | 82 | 150 | 4.0 | 10.0 | 0.00 | 0.00 | 0.00 | 89 | 1014.5 |
| 20260831224023 | 83 | 146 | 2.0 | 10.0 | 0.00 | 0.00 | 0.00 | 88 | 1014.5 |
| 20260831224019 | 83 | 155 | 5.0 | 9.0 | 0.00 | 0.00 | 0.00 | 88 | 1014.5 |
| 20260831224013 | 83 | 207 | 2.0 | 7.0 | 0.00 | 0.00 | 0.00 | 87 | 1014.5 |
| 20260831224004 | 83 | 123 | 2.0 | 9.0 | 0.00 | 0.00 | 0.00 | 87 | 1014.5 |
| 20260831224000 | 83 | 247 | 3.0 | 9.0 | 0.00 | 0.00 | 0.00 | 87 | 1014.5 |
| 20260831223954 | 83 | 163 | 3.0 | 11.0 | 0.00 | 0.00 | 0.00 | 86 | 1014.4 |
| 20260831223950 | 83 | 173 | 3.0 | 9.0 | 0.00 | 0.00 | 0.00 | 85 | 1014.4 |
| 20260831223947 | 84 | 221 | 2.0 | 10.0 | 0.00 | 0.00 | 0.00 | 83 | 1014.1 |
| 20260831223942 | 84 | 200 | 2.0 | 12.0 | 0.00 | 0.00 | 0.00 | 82 | 1014.0 |
| 20260831223937 | 84 | 219 | 5.0 | 12.0 | 0.00 | 0.00 | 0.00 | 81 | 1013.9 |
| 20260831223929 | 85 | 178 | 2.0 | 9.0 | 0.00 | 0.00 | 0.00 | 80 | 1013.8 |
| 20260831223924 | 85 | 51 | 4.0 | 11.0 | 0.00 | 0.00 | 0.00 | 79 | 1013.9 |
| 20260831223919 | 86 | 195 | 3.0 | 11.0 | 0.00 | 0.00 | 0.00 | 78 | 1013.4 |
| 20260831223912 | 87 | 221 | 6.0 | 12.0 | 0.00 | 0.00 | 0.00 | 77 | 1013.2 |
| 20260831223904 | 87 | 182 | 5.0 | 15.0 | 0.00 | 0.00 | 0.00 | 76 | 1013.2 |
| 20260831223900 | 87 | 202 | 6.0 | 12.0 | 0.00 | 0.00 | 0.00 | 76 | 1013.0 |
| 20260831223855 | 88 | 271 | 4.0 | 12.0 | 0.00 | 0.00 | 0.00 | 76 | 1012.8 |
| 20260831223850 | 88 | 187 | 6.0 | 16.0 | 0.00 | 0.00 | 0.00 | 75 | 1012.8 |
| 20260831223847 | 89 | 191 | 6.0 | 12.0 | 0.00 | 0.00 | 0.00 | 74 | 1012.7 |
| 20260831223843 | 90 | 182 | 6.0 | 16.0 | 0.00 | 0.00 | 0.00 | 73 | 1012.7 |
| 20260831223838 | 90 | 220 | 7.0 | 11.0 | 0.00 | 0.00 | 0.00 | 72 | 1012.6 |
| 20260831223834 | 92 | 193 | 6.0 | 14.0 | 0.00 | 0.00 | 0.00 | 69 | 1012.5 |
| 20260831223831 | 93 | 209 | 5.0 | 13.0 | 0.00 | 0.00 | 0.00 | 62 | 1012.4 |
| 20260831223827 | 94 | 209 | 3.0 | 10.0 | 0.00 | 0.00 | 0.00 | 61 | 1012.3 |
| 20260831223824 | 95 | 185 | 2.0 | 9.0 | 0.00 | 0.00 | 0.00 | 59 | 1012.1 |
| 20260831223820 | 95 | 178 | 2.0 | 10.0 | 0.00 | 0.00 | 0.00 | 59 | 1012.1 |
| 20260831223814 | 99 | 175 | 4.0 | 10.0 | 0.00 | 0.00 | 0.00 | 55 | 1012.3 |
| 20260831223758 | 99 | 157 | 3.0 | 9.0 | 0.00 | 0.00 | 0.00 | 55 | 1012.3 |
| 20260831223750 | 99 | 163 | 3.0 | 9.0 | 0.00 | 0.00 | 0.00 | 55 | 1012.3 |
| 20260831223748 | 99 | 168 | 4.0 | 10.0 | 0.00 | 0.00 | 0.00 | 55 | 1012.4 |
| 20260831223742 | 100 | 186 | 2.0 | 11.0 | 0.00 | 0.00 | 0.00 | 54 | 1012.4 |
| 20260831223739 | 102 | 194 | 4.0 | 11.0 | 0.00 | 0.00 | 0.00 | 51 | 1012.4 |
| 20260831223735 | 102 | 168 | 4.0 | 11.0 | 0.00 | 0.00 | 0.00 | 51 | 1012.4 |
| 20260831223730 | 102 | 254 | 4.0 | 8.0 | 0.00 | 0.00 | 0.00 | 52 | 1012.4 |
| 20260831223724 | 103 | 282 | 2.0 | 10.0 | 0.00 | 0.00 | 0.00 | 51 | 1012.4 |
| 20260831223721 | 103 | 164 | 4.0 | 12.0 | 0.00 | 0.00 | 0.00 | 51 | 1012.5 |
| 20260831223705 | 103 | 167 | 4.0 | 0.0 | 0.00 | 0.00 | 0.00 | 50 | 1012.5 |
| 20260831223649 | 103 | 255 | 3.0 | 0.0 | 0.00 | 0.00 | 0.00 | 52 | 1012.5 |